Volver al catálogo

QIANFAN-167

ActivoComunicacionesPO
NORAD 69384·PAYLOAD·🇨🇳 China

Lanzado Jun 4, 2026 desde Taiyuan Satellite Launch Center

Loading…

Próximos Pases (próximas 24 horas)

TLE

ActualizadoSource: Space-Track

Época: Sep 14, 2026, 12:52 UTC

1 69384U 26124C   26257.53645576  .00000127  00000-0  17800-3 0  9997
2 69384  89.0065 352.6384 0002180 107.9923 252.1466 13.51030644 14090

Sigue QIANFAN-167 en tiempo real con AllMySat

Download on the App Store